When you browse on this site, cookies collect data to enhance your experience and personalize the content and advertising you see.
Visit our Privacy Policy to learn more. By continuing to use the site, you agree to this use of cookies and data.

Hourly Weather Tirana

Today, 5 July, Sunday

Time Temperature Precipitation Wind Pressure Humidity
00:00 +24°C° 0 mm 3 mps 751 mmHg 72%
01:00 +24°C° 0 mm 2 mps 751 mmHg 69%
02:00 +23°C° 0 mm 2 mps 751 mmHg 69%
03:00 +23°C° 0 mm 2 mps 750 mmHg 69%
04:00 +23°C° 0 mm 2 mps 750 mmHg 69%
05:00 +24°C° 0 mm 2 mps 750 mmHg 64%
06:00 +26°C° 0 mm 2 mps 750 mmHg 59%
07:00 +28°C° 0 mm 2 mps 750 mmHg 54%
08:00 +30°C° 0 mm 3 mps 750 mmHg 48%
09:00 +33°C° 0 mm 3 mps 750 mmHg 42%
10:00 +35°C° 0 mm 4 mps 750 mmHg 36%
11:00 +36°C° 0 mm 5 mps 750 mmHg 34%
12:00 +36°C° 0 mm 6 mps 750 mmHg 32%
13:00 +38°C° 0 mm 7 mps 749 mmHg 29%
14:00 +36°C° 0 mm 7 mps 749 mmHg 32%
15:00 +36°C° 0 mm 7 mps 749 mmHg 35%
16:00 +35°C° 0 mm 8 mps 749 mmHg 38%
17:00 +32°C° 0.3 mm 6 mps 749 mmHg 51%
18:00 +28°C° 0.3 mm 5 mps 749 mmHg 65%
19:00 +25°C° 0.3 mm 4 mps 749 mmHg 78%
20:00 +25°C° 0 mm 4 mps 749 mmHg 77%
21:00 +25°C° 0 mm 3 mps 749 mmHg 77%
22:00 +24°C° 0 mm 3 mps 749 mmHg 77%
23:00 +24°C° 0 mm 3 mps 749 mmHg 75%

Tomorrow, 6 July, Monday

Time Temperature Precipitation Wind Pressure Humidity
00:00 +24°C° 0 mm 2 mps 749 mmHg 73%
01:00 +24°C° 0 mm 2 mps 749 mmHg 72%
02:00 +24°C° 0 mm 2 mps 749 mmHg 72%
03:00 +24°C° 0 mm 2 mps 748 mmHg 72%
04:00 +24°C° 0 mm 3 mps 748 mmHg 72%
05:00 +24°C° 0.1 mm 3 mps 748 mmHg 71%
06:00 +25°C° 0.1 mm 3 mps 748 mmHg 71%
07:00 +25°C° 0.1 mm 3 mps 748 mmHg 70%
08:00 +27°C° 0 mm 3 mps 748 mmHg 62%
09:00 +29°C° 0 mm 3 mps 748 mmHg 53%
10:00 +31°C° 0 mm 3 mps 748 mmHg 44%
11:00 +33°C° 0 mm 4 mps 747 mmHg 42%
12:00 +34°C° 0 mm 5 mps 747 mmHg 39%
13:00 +35°C° 0 mm 5 mps 747 mmHg 36%
14:00 +34°C° 0 mm 6 mps 746 mmHg 40%
15:00 +33°C° 0 mm 7 mps 746 mmHg 44%
16:00 +33°C° 0 mm 8 mps 746 mmHg 47%
17:00 +30°C° 0 mm 7 mps 746 mmHg 55%
18:00 +29°C° 0 mm 6 mps 746 mmHg 62%
19:00 +27°C° 0 mm 5 mps 746 mmHg 69%
20:00 +26°C° 0 mm 5 mps 746 mmHg 70%
21:00 +26°C° 0 mm 4 mps 746 mmHg 71%
22:00 +25°C° 0 mm 3 mps 746 mmHg 71%
23:00 +25°C° 0 mm 3 mps 746 mmHg 71%

Day after tomorrow, 7 July, Tuesday

Time Temperature Precipitation Wind Pressure Humidity
00:00 +24°C° 0 mm 2 mps 746 mmHg 71%
01:00 +24°C° 0 mm 2 mps 746 mmHg 71%
02:00 +23°C° 0 mm 2 mps 745 mmHg 70%
03:00 +23°C° 0 mm 2 mps 745 mmHg 69%
04:00 +23°C° 0 mm 2 mps 745 mmHg 68%
05:00 +25°C° 0 mm 1 mps 745 mmHg 62%
06:00 +26°C° 0 mm 1 mps 746 mmHg 56%
07:00 +28°C° 0 mm 1 mps 746 mmHg 50%
08:00 +30°C° 0 mm 2 mps 746 mmHg 47%
09:00 +33°C° 0 mm 3 mps 746 mmHg 43%
10:00 +34°C° 0 mm 4 mps 747 mmHg 39%
11:00 +35°C° 0 mm 5 mps 747 mmHg 38%
12:00 +36°C° 0 mm 6 mps 747 mmHg 36%
13:00 +38°C° 0 mm 6 mps 747 mmHg 35%
14:00 +36°C° 0 mm 7 mps 747 mmHg 38%
15:00 +35°C° 0 mm 8 mps 747 mmHg 41%
16:00 +34°C° 0 mm 9 mps 748 mmHg 44%
17:00 +32°C° 0 mm 8 mps 748 mmHg 50%
18:00 +29°C° 0 mm 7 mps 748 mmHg 57%
19:00 +27°C° 0 mm 7 mps 749 mmHg 63%
20:00 +24°C° 0 mm 6 mps 749 mmHg 66%
21:00 +23°C° 0 mm 6 mps 750 mmHg 69%
22:00 +22°C° 0 mm 6 mps 750 mmHg 73%
23:00 +22°C° 0 mm 6 mps 750 mmHg 73%

8 July, Wednesday

Time Temperature Precipitation Wind Pressure Humidity
00:00 +21°C° 0 mm 5 mps 751 mmHg 73%
01:00 +21°C° 0 mm 5 mps 751 mmHg 74%
02:00 +20°C° 0 mm 5 mps 751 mmHg 73%
03:00 +20°C° 0 mm 5 mps 751 mmHg 71%
04:00 +19°C° 0 mm 5 mps 751 mmHg 70%
05:00 +20°C° 0 mm 5 mps 751 mmHg 64%
06:00 +22°C° 0 mm 6 mps 751 mmHg 59%
07:00 +23°C° 0 mm 6 mps 752 mmHg 53%
08:00 +26°C° 0 mm 6 mps 752 mmHg 48%
09:00 +28°C° 0 mm 6 mps 752 mmHg 43%
10:00 +30°C° 0 mm 6 mps 752 mmHg 38%
11:00 +32°C° 0 mm 6 mps 752 mmHg 36%
12:00 +33°C° 0 mm 7 mps 752 mmHg 34%
13:00 +34°C° 0 mm 7 mps 752 mmHg 32%
14:00 +34°C° 0 mm 8 mps 752 mmHg 32%
15:00 +34°C° 0 mm 8 mps 752 mmHg 32%
16:00 +33°C° 0 mm 8 mps 752 mmHg 32%
17:00 +31°C° 0 mm 8 mps 752 mmHg 38%
18:00 +28°C° 0 mm 8 mps 752 mmHg 45%
19:00 +26°C° 0 mm 8 mps 752 mmHg 51%
20:00 +24°C° 0 mm 7 mps 753 mmHg 54%
21:00 +23°C° 0 mm 6 mps 753 mmHg 56%
22:00 +22°C° 0 mm 5 mps 754 mmHg 59%
23:00 +21°C° 0 mm 5 mps 754 mmHg 59%

9 July, Thursday

Time Temperature Precipitation Wind Pressure Humidity
00:00 +20°C° 0 mm 4 mps 754 mmHg 59%
01:00 +20°C° 0 mm 3 mps 754 mmHg 58%
02:00 +19°C° 0 mm 3 mps 754 mmHg 58%
03:00 +19°C° 0 mm 3 mps 754 mmHg 58%
04:00 +19°C° 0 mm 3 mps 754 mmHg 58%
05:00 +20°C° 0 mm 3 mps 754 mmHg 53%
06:00 +22°C° 0 mm 3 mps 754 mmHg 49%
07:00 +25°C° 0 mm 3 mps 754 mmHg 45%
08:00 +28°C° 0 mm 2 mps 754 mmHg 39%
09:00 +30°C° 0 mm 2 mps 754 mmHg 34%
10:00 +32°C° 0 mm 2 mps 754 mmHg 28%
11:00 +34°C° 0 mm 3 mps 754 mmHg 27%
12:00 +35°C° 0 mm 3 mps 754 mmHg 26%
13:00 +35°C° 0 mm 4 mps 754 mmHg 25%
14:00 +35°C° 0 mm 5 mps 754 mmHg 27%
15:00 +34°C° 0 mm 5 mps 754 mmHg 29%
16:00 +33°C° 0 mm 6 mps 753 mmHg 32%
17:00 +30°C° 0 mm 5 mps 753 mmHg 40%
18:00 +28°C° 0 mm 5 mps 753 mmHg 49%
19:00 +26°C° 0 mm 4 mps 753 mmHg 57%
20:00 +25°C° 0 mm 3 mps 754 mmHg 58%
21:00 +24°C° 0 mm 3 mps 754 mmHg 58%
22:00 +24°C° 0 mm 2 mps 754 mmHg 59%
23:00 +23°C° 0 mm 2 mps 754 mmHg 57%

10 July, Friday

Time Temperature Precipitation Wind Pressure Humidity
00:00 +23°C° 0 mm 2 mps 754 mmHg 55%
01:00 +21°C° 0 mm 2 mps 754 mmHg 52%
02:00 +21°C° 0 mm 2 mps 754 mmHg 50%
03:00 +21°C° 0 mm 2 mps 754 mmHg 49%
04:00 +21°C° 0 mm 2 mps 754 mmHg 47%
05:00 +24°C° 0 mm 2 mps 754 mmHg 44%
06:00 +26°C° 0 mm 2 mps 754 mmHg 41%
07:00 +28°C° 0 mm 2 mps 754 mmHg 38%
08:00 +30°C° 0 mm 2 mps 754 mmHg 34%
09:00 +32°C° 0 mm 1 mps 754 mmHg 30%
10:00 +34°C° 0 mm 1 mps 754 mmHg 26%
11:00 +35°C° 0 mm 2 mps 753 mmHg 27%
12:00 +36°C° 0 mm 3 mps 753 mmHg 27%
13:00 +36°C° 0 mm 4 mps 753 mmHg 27%
14:00 +35°C° 0 mm 4 mps 753 mmHg 30%
15:00 +35°C° 0 mm 4 mps 753 mmHg 33%
16:00 +34°C° 0 mm 4 mps 753 mmHg 35%
17:00 +31°C° 0 mm 3 mps 752 mmHg 43%
18:00 +29°C° 0 mm 2 mps 752 mmHg 51%
19:00 +27°C° 0 mm 2 mps 752 mmHg 58%
20:00 +26°C° 0 mm 1 mps 753 mmHg 60%
21:00 +25°C° 0 mm 1 mps 753 mmHg 61%
22:00 +22°C° 0 mm 0 mps 753 mmHg 63%
23:00 +24°C° 0 mm 1 mps 753 mmHg 63%
Show more